This demonstration page uses our WeatherBlox Daily Observations layout. Learn more.

Left ArrowRight Arrow

39.92423, -83.80882

Hourly Observations for March 5, 2020

Temp ( °F °C ) Dew Point ( °F °C ) Humidity (%) Winds ( mph kmh ) Pressure ( in mb ) Visibility ( mi km ) Precip ( " mm )
12:56 am 00:56 Clear 34 1.1 26 -3.3 73 73 NNE 3 6 30.14 1021 10 16.0934 0 0
1:56 am 01:56 Clear 32 0 28 -2.2 85 85 Calm 30.15 1021 10 16.0934 0 0
2:56 am 02:56 Clear 26 -3.3 25 -3.9 96 96 ESE 5 7 30.14 1021 10 16.0934 0.08 2.032
3:56 am 03:56 Clear 27 -2.8 26 -3.3 96 96 ESE 3 6 30.15 1021 10 16.0934 0 0
4:56 am 04:56 Clear 27 -2.8 26 -3.3 96 96 ESE 3 6 30.16 1022 10 16.0934 0 0
5:56 am 05:56 Clear 26 -3.3 25 -3.9 96 96 E 3 6 30.16 1022 10 16.0934 0 0
6:56 am 06:56 Clear 25 -3.9 25 -3.9 100 100 ESE 3 6 30.15 1021 10 16.0934 0 0
7:56 am 07:56 Sunny 27 -2.8 27 -2.8 100 100 ESE 3 6 30.16 1021 10 16.0934 0 0
8:56 am 08:56 Sunny 36 2.2 28 -2.2 73 73 SSE 12 19 30.14 1021 10 16.0934 0 0
9:56 am 09:56 Sunny 39 3.9 27 -2.8 62 62 SSE 10 17 30.13 1020 10 16.0934 0.28 7.112
10:56 am 10:56 Sunny 43 6.1 26 -3.3 51 51 SSE 10 17 30.13 1020 10 16.0934 3.07 77.978
11:56 am 11:56 Sunny 45 7.2 29 -1.7 54 54 S 6 9 30.12 1020 10 16.0934 5.23 132.842
12:56 pm 12:56 Sunny 49 9.4 30 -1.1 48 48 S 7 11 30.07 1018 10 16.0934 5.57 141.478
1:56 pm 13:56 Sunny 51 10.6 30 -1.1 44 44 S 8 13 30.02 1017 10 16.0934 2.81 71.374
2:56 pm 14:56 Sunny 52 11.1 32 0 47 47 SSW 9 15 29.99 1016 10 16.0934 2.09 53.086
3:56 pm 15:56 Sunny 54 12.2 29 -1.7 38 38 SSW 8 13 29.97 1015 10 16.0934 3.02 76.708
4:56 pm 16:56 Sunny 54 12.2 29 -1.7 38 38 SSW 7 11 29.94 1014 10 16.0934 1.07 27.178
5:56 pm 17:56 Sunny 53 11.7 30 -1.1 41 41 SSW 5 7 29.93 1014 10 16.0934 0.49 12.446
6:56 pm 18:56 Clear 48 8.9 28 -2.2 46 46 SW 6 9 29.94 1014 10 16.0934 0.98 24.892
7:56 pm 19:56 Clear 45 7.2 25 -3.9 46 46 WSW 6 9 29.94 1014 10 16.0934 0.1 2.54
8:56 pm 20:56 Cloudy 46 7.8 28 -2.2 50 50 W 10 17 29.93 1014 10 16.0934 0.19 4.826
9:56 pm 21:56 Cloudy with Light Rain 45 7.2 38 3.3 77 77 WSW 9 15 29.95 1014 10 16.0934 0.001 0.001
10:56 pm 22:56 Mostly Clear 42 5.6 38 3.3 85 85 W 7 11 29.95 1014 10 16.0934 0.001 0.001
11:56 pm 23:56 Clear 41 5 35 1.7 79 79 NW 9 15 29.93 1014 10 16.0934 0 0

Powered by AerisWeather